Tracking 20232 objects as of 18-Jan-2020
HD Live streaming from Space Station
objects crossing your sky now

FENGYUN 1C DEB

Track FENGYUN 1C DEB now!
10-day predictions


NORAD ID: 41001
Int'l Code: 1999-025EXF
Perigee: 803.2 km
Apogee: 862.2 km
Inclination: 99.0 °
Period: 101.4 minutes
Semi major axis: 7203 km
RCS: Unknown
Launch date: May 10, 1999
Source: People's Republic of China (PRC)
Launch site: Taiyaun Space Center, China (TSC)

Note: This is SATELLITE DEBRIS
aabbcc
Your satellite tracking list
Your tracking list is empty




NASA's NSSDC Master Catalog

Two Line Element Set (TLE):
1 41001U 99025EXF 19365.86818350  .00000852  00000-0  41911-3 0  9998
2 41001  99.0088  21.5277 0040970 167.0782 316.4315 14.19928793301377
Source of the keplerian elements: AFSPC